Location: Saratoga Springs
(43.0831°N, 73.7850°W)
Time: 05:19:48
(UTC-04:00)

Vanguard 2 - Pass Details

Date: 24 April 2024
Orbit: 553 x 2914 km, 32.9° (Epoch: 17 May)

Event Time Altitude Azimuth Distance (km) Brightness Sun altitude
Rises 06:13:15 0° 274° (W) 6,460 11.6 1.8°
Reaches altitude 10° 06:17:36 10° 269° (W) 5,603 11.3 2.6°
Maximum altitude 06:33:37 45° 205° (SSW) 3,551 10.7 5.4°
Drops below altitude 10° 06:47:54 10° 139° (SE) 5,015 12.2 8.0°
Sets 06:51:34 0° 134° (SE) 5,756 12.6 8.6°
